Weather in Zhemchuzhnikovo

Russia / Tula Oblast     53°56′11″N   36°48′36″E
temp.,
°C
wind,
m/s
gust,
m/s
humid.,
%
clouds,
%
prec.,
mm/h
press.,
hPa
HPBL,
m
28 september, tue
tue2800:00+8n4992100 0.1 1023642
03:00+8nne4992100 0.3 1024561
06:00+7nne5992100 0.1 1025546
09:00+6ne5986100 0.3 1027695
12:00+7ene5782100 0.1 1028996
15:00+8ne5674100 0.2 10301057
18:00+7ene4876100 0.1 1031709
21:00+6ene4877100 0.1 1033546
29 september, wed
wed2900:00+3ne35885 0.0 1034108
03:00+2ne23865 0.0 103554
06:00+1nne24926 0.0 103665
09:00+5nne35755 0.0 1036296
12:00+10ne34538 0.0 1035909
15:00+11nne33475 0.0 10341162
18:00+7nne226750 0.0 103417
21:00+6nne2275100 0.0 103514
30 september, thu
thu3000:00+4nne118119 0.0 103510
03:00+4n118512 0.0 103511
06:00+3n118944 0.0 103510
09:00+7nne1375100 0.0 1035125
12:00+10nne2363100 0.0 1035702
15:00+10nne226274 0.0 1035872
18:00+7n117525 0.0 103510
21:00+6nw11830 0.0 103510
1 october, fri
fri100:00+5n11850 0.0 103610
03:00+4nnw11860 0.0 103610
06:00+4nnw00870 0.0 103610
09:00+8wsw11720 0.0 1037149
12:00+12sw22564 0.0 1036746
15:00+13sw22525 0.0 10351024
18:00+9wsw11695 0.0 103510
21:00+7ssw11755 0.0 103510
2 october, sat
sat200:00+6ssw11805 0.0 103510
03:00+5sw11855 0.0 103510
06:00+5ssw11865 0.0 103510
09:00+9ssw12705 0.0 1035165
12:00+13ssw23565 0.0 1034729
15:00+15ssw23525 0.0 10331040
18:00+10ssw347367 0.0 103355
21:00+10s2373100 0.0 103354